| time (UTC) | temp F | wind direction | speed knots | gust knots | rain 1hr in | rain 24hr in | rain mn in | humidity % | barometer mb |
| 20260508163805 | 71 | 58 | 3.5 | 6.1 | 0.00 | 0.02 | 0.00 | 65 | 1010.7 |
| 20260508163305 | 71 | 44 | 5.2 | 10.4 | 0.00 | 0.02 | 0.00 | 63 | 1010.8 |
| 20260508162307 | 72 | 112 | 4.3 | 7.0 | 0.00 | 0.02 | 0.00 | 63 | 1010.9 |
| 20260508161805 | 72 | 103 | 5.2 | 7.0 | 0.00 | 0.02 | 0.00 | 63 | 1010.8 |
| 20260508161304 | 72 | 106 | 5.2 | 10.4 | 0.00 | 0.02 | 0.00 | 63 | 1010.7 |
| 20260508160804 | 72 | 58 | 4.3 | 8.7 | 0.00 | 0.02 | 0.00 | 63 | 1010.7 |
| 20260508160305 | 72 | 62 | 3.5 | 7.0 | 0.00 | 0.02 | 0.00 | 62 | 1010.7 |
| 20260508155804 | 72 | 93 | 1.7 | 5.2 | 0.00 | 0.02 | 0.00 | 64 | 1010.6 |
| 20260508155306 | 72 | 56 | 3.5 | 8.7 | 0.00 | 0.02 | 0.00 | 63 | 1010.7 |
| 20260508154805 | 72 | 95 | 2.6 | 5.2 | 0.00 | 0.02 | 0.00 | 65 | 1010.6 |
| 20260508154305 | 71 | 95 | 3.5 | 8.7 | 0.00 | 0.02 | 0.00 | 66 | 1010.5 |
| 20260508153805 | 71 | 80 | 4.3 | 11.3 | 0.00 | 0.02 | 0.00 | 68 | 1010.3 |
| 20260508153304 | 71 | 19 | 3.5 | 7.8 | 0.00 | 0.02 | 0.00 | 67 | 1010.4 |
| 20260508152306 | 71 | 61 | 3.5 | 7.0 | 0.00 | 0.02 | 0.00 | 67 | 1010.4 |
| 20260508151805 | 71 | 61 | 2.6 | 7.0 | 0.00 | 0.02 | 0.00 | 68 | 1010.5 |
| 20260508151304 | 72 | 73 | 5.2 | 7.8 | 0.00 | 0.02 | 0.00 | 67 | 1010.6 |
| 20260508150304 | 72 | 82 | 3.5 | 7.8 | 0.00 | 0.02 | 0.00 | 65 | 1010.6 |
| 20260508145804 | 72 | 66 | 4.3 | 8.7 | 0.00 | 0.02 | 0.00 | 63 | 1010.6 |
| 20260508145306 | 72 | 63 | 5.2 | 11.3 | 0.00 | 0.02 | 0.00 | 61 | 1010.4 |
| 20260508143304 | 71 | 84 | 2.6 | 7.8 | 0.00 | 0.02 | 0.00 | 63 | 1011.1 |
| 20260508142804 | 71 | 77 | 1.7 | 7.0 | 0.00 | 0.02 | 0.00 | 63 | 1011.2 |
| 20260508142306 | 71 | 69 | 4.3 | 7.0 | 0.00 | 0.02 | 0.00 | 62 | 1011.2 |
| 20260508141805 | 71 | 60 | 3.5 | 6.1 | 0.00 | 0.02 | 0.00 | 63 | 1011.2 |
| 20260508141304 | 71 | 63 | 4.3 | 7.0 | 0.00 | 0.02 | 0.00 | 62 | 1011.3 |
| 20260508140805 | 72 | 41 | 3.5 | 10.4 | 0.00 | 0.02 | 0.00 | 62 | 1011.3 |
| 20260508140304 | 72 | 27 | 2.6 | 7.0 | 0.00 | 0.02 | 0.00 | 62 | 1011.3 |
| 20260508135804 | 73 | 51 | 4.3 | 7.0 | 0.00 | 0.02 | 0.00 | 61 | 1011.4 |
| 20260508135306 | 72 | 68 | 1.7 | 6.1 | 0.00 | 0.02 | 0.00 | 63 | 1011.5 |
| 20260508134804 | 72 | 52 | 4.3 | 7.8 | 0.00 | 0.02 | 0.00 | 62 | 1011.5 |
| 20260508134305 | 72 | 354 | 2.6 | 5.2 | 0.00 | 0.02 | 0.00 | 64 | 1011.6 |
| 20260508133805 | 71 | 82 | 1.7 | 6.1 | 0.00 | 0.02 | 0.00 | 65 | 1011.6 |
| 20260508133304 | 70 | 79 | 5.2 | 8.7 | 0.00 | 0.02 | 0.00 | 66 | 1011.7 |
| 20260508132804 | 71 | 66 | 2.6 | 4.3 | 0.00 | 0.02 | 0.00 | 65 | 1011.8 |
| 20260508132306 | 71 | 55 | 2.6 | 7.8 | 0.00 | 0.02 | 0.00 | 66 | 1012.0 |
| 20260508131804 | 71 | 18 | 3.5 | 6.1 | 0.00 | 0.02 | 0.00 | 66 | 1012.0 |
| 20260508131305 | 71 | 9 | 2.6 | 7.0 | 0.00 | 0.02 | 0.00 | 65 | 1012.0 |
| 20260508130805 | 71 | 86 | 2.6 | 6.1 | 0.00 | 0.02 | 0.00 | 67 | 1012.0 |
| 20260508130305 | 70 | 34 | 3.5 | 6.1 | 0.00 | 0.02 | 0.00 | 67 | 1012.1 |
| 20260508125804 | 69 | 92 | 1.7 | 5.2 | 0.00 | 0.02 | 0.00 | 68 | 1012.1 |
| 20260508124805 | 69 | 31 | 3.5 | 7.8 | 0.00 | 0.02 | 0.00 | 68 | 1011.9 |
| 20260508124304 | 69 | 33 | 4.3 | 7.0 | 0.00 | 0.02 | 0.00 | 68 | 1012.0 |
| 20260508123305 | 69 | 342 | 1.7 | 5.2 | 0.00 | 0.02 | 0.00 | 69 | 1012.1 |
| 20260508122804 | 69 | 334 | 3.5 | 5.2 | 0.00 | 0.02 | 0.00 | 68 | 1012.3 |
| 20260508122307 | 69 | 2 | 2.6 | 6.1 | 0.00 | 0.02 | 0.00 | 67 | 1012.3 |
| 20260508121804 | 70 | 347 | 1.7 | 7.0 | 0.00 | 0.02 | 0.00 | 67 | 1012.4 |
| 20260508121305 | 70 | 5 | 2.6 | 5.2 | 0.00 | 0.02 | 0.00 | 67 | 1012.4 |
| 20260508120304 | 69 | 17 | 2.6 | 5.2 | 0.00 | 0.02 | 0.00 | 69 | 1012.4 |
| 20260508115805 | 69 | 14 | 1.7 | 2.6 | 0.00 | 0.02 | 0.00 | 69 | 1012.4 |
| 20260508115306 | 68 | 5 | 3.5 | 5.2 | 0.00 | 0.02 | 0.00 | 71 | 1012.5 |
| 20260508114805 | 67 | 261 | 1.7 | 4.3 | 0.00 | 0.02 | 0.00 | 73 | 1012.5 |
| 20260508114304 | 66 | 258 | 1.7 | 4.3 | 0.00 | 0.02 | 0.00 | 74 | 1012.6 |
| 20260508113805 | 66 | 251 | 1.7 | 2.6 | 0.00 | 0.02 | 0.00 | 73 | 1012.7 |
| 20260508113305 | 66 | 251 | 0.9 | 2.6 | 0.00 | 0.02 | 0.00 | 73 | 1012.8 |
| 20260508112804 | 66 | 251 | 0.9 | 2.6 | 0.00 | 0.02 | 0.00 | 73 | 1012.7 |
| 20260508112307 | 66 | 285 | 2.6 | 5.2 | 0.00 | 0.02 | 0.00 | 73 | 1012.7 |
| 20260508111804 | 66 | 349 | 1.7 | 2.6 | 0.00 | 0.02 | 0.00 | 73 | 1012.6 |
| 20260508111305 | 66 | 348 | 1.7 | 2.6 | 0.00 | 0.02 | 0.00 | 73 | 1012.6 |
| 20260508110805 | 66 | 351 | 1.7 | 4.3 | 0.00 | 0.02 | 0.00 | 73 | 1012.5 |
| 20260508110304 | 66 | 352 | 2.6 | 6.1 | 0.00 | 0.02 | 0.00 | 73 | 1012.2 |
| 20260508105804 | 65 | 336 | 2.6 | 4.3 | 0.00 | 0.02 | 0.00 | 74 | 1012.3 |
| 20260508105306 | 65 | 299 | 1.7 | 4.3 | 0.00 | 0.02 | 0.00 | 74 | 1012.3 |
| 20260508104805 | 65 | 46 | 1.7 | 2.6 | 0.00 | 0.02 | 0.00 | 74 | 1012.3 |
| 20260508104305 | 65 | 47 | 0.9 | 2.6 | 0.00 | 0.02 | 0.00 | 74 | 1012.4 |
| 20260508103304 | 65 | 46 | 1.7 | 2.6 | 0.00 | 0.02 | 0.00 | 74 | 1012.7 |
| 20260508102805 | 65 | 46 | 0.9 | 4.3 | 0.00 | 0.02 | 0.00 | 74 | 1012.7 |
| 20260508102306 | 65 | 42 | 2.6 | 4.3 | 0.00 | 0.02 | 0.00 | 74 | 1012.7 |
| 20260508101305 | 65 | 47 | 2.6 | 2.6 | 0.00 | 0.03 | 0.00 | 74 | 1012.7 |
| 20260508100804 | 65 | 48 | 2.6 | 4.3 | 0.00 | 0.03 | 0.00 | 74 | 1012.8 |
| 20260508100304 | 65 | 47 | 0.0 | 2.6 | 0.00 | 0.03 | 0.00 | 74 | 1013.0 |
| 20260508095804 | 65 | 47 | 0.9 | 1.7 | 0.00 | 0.14 | 0.00 | 73 | 1013.0 |
| 20260508095306 | 65 | 48 | 0.0 | 2.6 | 0.00 | 0.15 | 0.00 | 73 | 1012.9 |
| 20260508094804 | 65 | 43 | 1.7 | 2.6 | 0.00 | 0.15 | 0.00 | 73 | 1012.7 |
| 20260508093805 | 65 | 46 | 1.7 | 4.3 | 0.00 | 0.15 | 0.00 | 73 | 1012.4 |
| 20260508093304 | 65 | 47 | 3.5 | 5.2 | 0.00 | 0.15 | 0.00 | 73 | 1012.3 |
| 20260508092804 | 65 | 242 | 1.7 | 2.6 | 0.00 | 0.15 | 0.00 | 73 | 1012.4 |
| 20260508091805 | 65 | 236 | 0.9 | 2.6 | 0.00 | 0.15 | 0.00 | 72 | 1012.4 |
| 20260508091304 | 65 | 236 | 1.7 | 2.6 | 0.00 | 0.15 | 0.00 | 72 | 1012.4 |
| 20260508090304 | 65 | 236 | 1.7 | 4.3 | 0.00 | 0.15 | 0.00 | 72 | 1012.5 |
| 20260508085804 | 65 | 259 | 1.7 | 5.2 | 0.00 | 0.15 | 0.00 | 73 | 1012.7 |
| 20260508085307 | 65 | 248 | 2.6 | 5.2 | 0.00 | 0.15 | 0.00 | 75 | 1012.7 |
| 20260508084805 | 64 | 266 | 2.6 | 5.2 | 0.00 | 0.15 | 0.00 | 76 | 1012.6 |
| 20260508084304 | 64 | 244 | 1.7 | 4.3 | 0.00 | 0.15 | 0.00 | 77 | 1012.6 |
| 20260508083805 | 64 | 246 | 1.7 | 4.3 | 0.00 | 0.15 | 0.00 | 77 | 1012.5 |
| 20260508083304 | 64 | 241 | 1.7 | 4.3 | 0.00 | 0.15 | 0.00 | 77 | 1012.4 |
| 20260508082805 | 64 | 233 | 2.6 | 5.2 | 0.00 | 0.15 | 0.00 | 77 | 1012.2 |
| 20260508082306 | 63 | 251 | 1.7 | 6.1 | 0.00 | 0.15 | 0.00 | 79 | 1012.2 |
| 20260508081804 | 63 | 285 | 2.6 | 6.1 | 0.00 | 0.15 | 0.00 | 80 | 1012.1 |
| 20260508081304 | 63 | 235 | 1.7 | 4.3 | 0.00 | 0.15 | 0.00 | 81 | 1012.1 |
| 20260508080804 | 62 | 246 | 1.7 | 4.3 | 0.00 | 0.15 | 0.00 | 81 | 1012.2 |
| 20260508080304 | 62 | 259 | 1.7 | 5.2 | 0.00 | 0.15 | 0.00 | 80 | 1012.1 |
| 20260508075804 | 62 | 288 | 1.7 | 2.6 | 0.00 | 0.15 | 0.00 | 80 | 1012.2 |
| 20260508075308 | 62 | 285 | 2.6 | 4.3 | 0.00 | 0.15 | 0.00 | 80 | 1012.1 |
| 20260508074804 | 62 | 329 | 2.6 | 4.3 | 0.00 | 0.15 | 0.00 | 80 | 1012.1 |
| 20260508073804 | 62 | 277 | 4.3 | 5.2 | 0.00 | 0.15 | 0.00 | 81 | 1012.0 |
| 20260508072804 | 61 | 241 | 1.7 | 4.3 | 0.00 | 0.15 | 0.00 | 82 | 1012.2 |
| 20260508072307 | 60 | 265 | 2.6 | 4.3 | 0.00 | 0.15 | 0.00 | 82 | 1012.2 |
| 20260508065804 | 58 | 326 | 2.6 | 4.3 | 0.00 | 0.15 | 0.00 | 85 | 1012.1 |
| 20260508064804 | 58 | 315 | 2.6 | 5.2 | 0.00 | 0.15 | 0.00 | 86 | 1012.0 |
| 20260508063804 | 58 | 352 | 1.7 | 2.6 | 0.00 | 0.15 | 0.00 | 87 | 1011.9 |
| 20260508063304 | 58 | 259 | 0.9 | 2.6 | 0.00 | 0.15 | 0.00 | 87 | 1011.8 |
| 20260508062804 | 58 | 265 | 2.6 | 4.3 | 0.00 | 0.15 | 0.00 | 87 | 1011.7 |
| 20260508062306 | 57 | 291 | 1.7 | 6.1 | 0.00 | 0.15 | 0.00 | 87 | 1011.5 |
| 20260508061804 | 57 | 236 | 1.7 | 2.6 | 0.00 | 0.15 | 0.00 | 87 | 1011.7 |
| 20260508061304 | 57 | 235 | 0.9 | 2.6 | 0.00 | 0.15 | 0.00 | 88 | 1011.7 |
| 20260508060805 | 57 | 236 | 0.9 | 2.6 | 0.00 | 0.15 | 0.00 | 88 | 1011.6 |
| 20260508060304 | 57 | 236 | 1.7 | 2.6 | 0.00 | 0.15 | 0.00 | 88 | 1011.6 |
| 20260508055804 | 57 | 235 | 1.7 | 2.6 | 0.00 | 0.15 | 0.00 | 88 | 1011.5 |
| 20260508055306 | 57 | 238 | 1.7 | 2.6 | 0.00 | 0.15 | 0.00 | 88 | 1011.7 |
| 20260508054804 | 56 | 235 | 0.9 | 2.6 | 0.00 | 0.15 | 0.00 | 88 | 1011.5 |
| 20260508054305 | 56 | 235 | 1.7 | 2.6 | 0.00 | 0.15 | 0.00 | 88 | 1011.4 |
| 20260508053804 | 56 | 246 | 1.7 | 4.3 | 0.00 | 0.15 | 0.00 | 88 | 1011.3 |
| 20260508053304 | 56 | 234 | 2.6 | 5.2 | 0.00 | 0.15 | 0.00 | 88 | 1011.1 |
| 20260508052804 | 56 | 234 | 1.7 | 2.6 | 0.00 | 0.15 | 0.00 | 89 | 1011.1 |
| 20260508052307 | 56 | 238 | 1.7 | 5.2 | 0.00 | 0.15 | 0.00 | 89 | 1011.1 |
| 20260508051804 | 56 | 252 | 1.7 | 2.6 | 0.00 | 0.15 | 0.00 | 89 | 1010.9 |
| 20260508051305 | 56 | 251 | 0.9 | 2.6 | 0.00 | 0.15 | 0.00 | 89 | 1010.7 |
| 20260508050804 | 56 | 250 | 1.7 | 2.6 | 0.00 | 0.15 | 0.00 | 88 | 1010.8 |
| 20260508050304 | 56 | 258 | 1.7 | 4.3 | 0.00 | 0.15 | 0.00 | 88 | 1010.7 |
| 20260508045804 | 56 | 253 | 2.6 | 2.6 | 0.00 | 0.15 | 0.00 | 88 | 1010.7 |
| 20260508045307 | 56 | 252 | 1.7 | 2.6 | 0.00 | 0.15 | 0.00 | 88 | 1010.7 |
| 20260508044804 | 56 | 271 | 1.7 | 2.6 | 0.00 | 0.15 | 0.00 | 88 | 1010.5 |
| 20260508044305 | 56 | 251 | 1.7 | 2.6 | 0.00 | 0.15 | 0.00 | 88 | 1010.6 |
| 20260508043804 | 56 | 251 | 0.9 | 2.6 | 0.00 | 0.15 | 0.00 | 88 | 1010.6 |
| 20260508043304 | 56 | 252 | 0.9 | 2.6 | 0.00 | 0.15 | 0.00 | 88 | 1010.5 |
| 20260508042804 | 56 | 251 | 0.9 | 2.6 | 0.00 | 0.15 | 0.00 | 88 | 1010.5 |
| 20260508041804 | 56 | 237 | 0.9 | 2.6 | 0.00 | 0.15 | 0.00 | 88 | 1010.4 |
| 20260508041304 | 56 | 237 | 1.7 | 5.2 | 0.00 | 0.15 | 0.00 | 88 | 1010.5 |
| 20260508040804 | 56 | 235 | 0.9 | 4.3 | 0.00 | 0.15 | 0.00 | 88 | 1010.6 |
| 20260508035804 | 56 | 244 | 1.7 | 2.6 | 0.00 | 0.15 | 0.00 | 88 | 1010.5 |
| 20260508035306 | 57 | 244 | 0.9 | 2.6 | 0.00 | 0.15 | 0.00 | 88 | 1010.5 |
| 20260508034804 | 57 | 244 | 1.7 | 2.6 | 0.00 | 0.15 | 0.00 | 88 | 1010.5 |
| 20260508034304 | 57 | 244 | 1.7 | 2.6 | 0.00 | 0.15 | 0.00 | 87 | 1010.5 |
| 20260508033804 | 57 | 244 | 0.9 | 2.6 | 0.00 | 0.15 | 0.00 | 87 | 1010.5 |
| 20260508031804 | 57 | 244 | 1.7 | 2.6 | 0.00 | 0.15 | 0.00 | 88 | 1010.5 |
| 20260508031304 | 57 | 244 | 0.9 | 1.7 | 0.00 | 0.15 | 0.00 | 88 | 1010.6 |
| 20260508030804 | 57 | 244 | 1.7 | 2.6 | 0.00 | 0.15 | 0.00 | 88 | 1010.7 |
| 20260508030304 | 57 | 244 | 0.0 | 1.7 | 0.00 | 0.15 | 0.00 | 88 | 1010.7 |
| 20260508025804 | 57 | 244 | 0.0 | 2.6 | 0.00 | 0.15 | 0.00 | 88 | 1010.7 |
| 20260508024804 | 57 | 244 | 0.9 | 4.3 | 0.00 | 0.15 | 0.00 | 88 | 1010.8 |
| 20260508023804 | 57 | 244 | 0.9 | 2.6 | 0.00 | 0.15 | 0.00 | 88 | 1011.0 |
| 20260508023304 | 57 | 244 | 0.9 | 2.6 | 0.00 | 0.15 | 0.00 | 88 | 1011.0 |
| 20260508022804 | 57 | 244 | 0.9 | 2.6 | 0.00 | 0.15 | 0.00 | 88 | 1011.0 |
| 20260508022307 | 57 | 244 | 0.9 | 2.6 | 0.00 | 0.15 | 0.00 | 88 | 1010.9 |
| 20260508021804 | 57 | 244 | 0.9 | 2.6 | 0.00 | 0.15 | 0.00 | 88 | 1010.9 |
| 20260508021304 | 57 | 244 | 0.9 | 2.6 | 0.00 | 0.15 | 0.00 | 88 | 1011.0 |
| 20260508020804 | 57 | 244 | 0.0 | 1.7 | 0.00 | 0.15 | 0.00 | 88 | 1010.9 |
| 20260508020304 | 57 | 244 | 0.9 | 2.6 | 0.00 | 0.15 | 0.00 | 88 | 1010.8 |
| 20260508015804 | 57 | 244 | 0.0 | 0.9 | 0.00 | 0.15 | 0.00 | 88 | 1010.8 |
| 20260508014804 | 57 | 243 | 0.0 | 1.7 | 0.00 | 0.15 | 0.00 | 88 | 1010.8 |
| 20260508014304 | 57 | 243 | 1.7 | 4.3 | 0.00 | 0.15 | 0.00 | 88 | 1011.0 |
| 20260508013304 | 57 | 244 | 0.9 | 2.6 | 0.00 | 0.15 | 0.00 | 88 | 1011.2 |
| 20260508012805 | 57 | 244 | 0.0 | 2.6 | 0.00 | 0.15 | 0.00 | 88 | 1011.2 |
| 20260508011304 | 57 | 244 | 0.9 | 2.6 | 0.00 | 0.15 | 0.00 | 88 | 1011.4 |
| 20260508010804 | 58 | 254 | 1.7 | 2.6 | 0.00 | 0.15 | 0.00 | 88 | 1011.5 |
| 20260508010304 | 58 | 244 | 0.9 | 2.6 | 0.00 | 0.15 | 0.00 | 88 | 1011.6 |
| 20260508005804 | 58 | 243 | 0.9 | 2.6 | 0.00 | 0.15 | 0.00 | 87 | 1011.7 |
| 20260508005306 | 58 | 244 | 0.0 | 2.6 | 0.00 | 0.15 | 0.00 | 87 | 1011.6 |
| 20260508004804 | 58 | 243 | 0.9 | 2.6 | 0.00 | 0.15 | 0.00 | 87 | 1011.6 |
| 20260508004304 | 58 | 243 | 0.9 | 2.6 | 0.00 | 0.15 | 0.00 | 87 | 1011.6 |
| 20260508003804 | 58 | 244 | 1.7 | 4.3 | 0.00 | 0.15 | 0.00 | 87 | 1011.6 |
| 20260508003304 | 58 | 246 | 1.7 | 4.3 | 0.00 | 0.15 | 0.00 | 87 | 1011.6 |
| 20260508002306 | 58 | 243 | 0.9 | 4.3 | 0.00 | 0.15 | 0.00 | 87 | 1011.7 |
| 20260508001804 | 58 | 243 | 0.9 | 2.6 | 0.00 | 0.15 | 0.00 | 87 | 1011.8 |
| 20260508001304 | 58 | 243 | 1.7 | 2.6 | 0.00 | 0.15 | 0.00 | 87 | 1011.9 |
| 20260508000804 | 58 | 243 | 0.9 | 4.3 | 0.00 | 0.15 | 0.00 | 87 | 1011.9 |
| 20260508000305 | 58 | 243 | 0.9 | 2.6 | 0.00 | 0.15 | 0.00 | 88 | 1012.0 |
| 20260507235803 | 58 | 244 | 0.0 | 1.7 | 0.00 | 0.15 | 0.00 | 88 | 1012.0 |
| 20260507235306 | 58 | 243 | 0.9 | 2.6 | 0.00 | 0.15 | 0.00 | 88 | 1011.9 |
| 20260507234804 | 58 | 243 | 0.9 | 2.6 | 0.00 | 0.15 | 0.00 | 88 | 1012.0 |
| 20260507234304 | 58 | 243 | 1.7 | 2.6 | 0.00 | 0.15 | 0.00 | 88 | 1012.0 |
| 20260507233804 | 58 | 243 | 1.7 | 4.3 | 0.00 | 0.15 | 0.00 | 88 | 1012.1 |
| 20260507233304 | 58 | 243 | 1.7 | 4.3 | 0.00 | 0.15 | 0.00 | 89 | 1012.1 |
| 20260507232804 | 58 | 244 | 1.7 | 4.3 | 0.00 | 0.15 | 0.00 | 89 | 1012.1 |
| 20260507232306 | 58 | 243 | 1.7 | 2.6 | 0.00 | 0.15 | 0.00 | 88 | 1012.2 |
| 20260507231804 | 58 | 249 | 1.7 | 2.6 | 0.00 | 0.15 | 0.00 | 89 | 1012.2 |
| 20260507231304 | 58 | 243 | 1.7 | 4.3 | 0.00 | 0.15 | 0.00 | 89 | 1012.3 |
| 20260507230804 | 58 | 257 | 2.6 | 4.3 | 0.00 | 0.15 | 0.00 | 89 | 1012.3 |
| 20260507230304 | 58 | 244 | 0.0 | 4.3 | 0.00 | 0.15 | 0.00 | 89 | 1012.4 |
| 20260507225804 | 58 | 244 | 1.7 | 4.3 | 0.00 | 0.15 | 0.00 | 88 | 1012.2 |
| 20260507224304 | 58 | 293 | 1.7 | 6.1 | 0.00 | 0.15 | 0.00 | 88 | 1012.2 |
| 20260507223803 | 58 | 274 | 1.7 | 5.2 | 0.00 | 0.15 | 0.00 | 88 | 1012.2 |
| 20260507223304 | 58 | 313 | 2.6 | 6.1 | 0.00 | 0.15 | 0.00 | 88 | 1012.2 |
| 20260507222803 | 58 | 279 | 1.7 | 6.1 | 0.00 | 0.15 | 0.00 | 88 | 1012.1 |
| 20260507222306 | 58 | 257 | 0.9 | 5.2 | 0.00 | 0.15 | 0.00 | 88 | 1012.1 |
| 20260507221304 | 58 | 254 | 1.7 | 6.1 | 0.00 | 0.15 | 0.00 | 88 | 1012.1 |
| 20260507220305 | 58 | 252 | 2.6 | 5.2 | 0.00 | 0.15 | 0.00 | 88 | 1012.2 |
| 20260507215804 | 58 | 229 | 1.7 | 5.2 | 0.00 | 0.15 | 0.15 | 88 | 1012.1 |
| 20260507215306 | 58 | 244 | 1.7 | 7.0 | 0.00 | 0.15 | 0.15 | 88 | 1012.1 |
| 20260507214805 | 58 | 233 | 1.7 | 4.3 | 0.00 | 0.15 | 0.15 | 88 | 1012.2 |
| 20260507213804 | 58 | 238 | 1.7 | 4.3 | 0.00 | 0.15 | 0.15 | 88 | 1012.1 |
| 20260507213304 | 58 | 237 | 0.9 | 2.6 | 0.00 | 0.15 | 0.15 | 88 | 1012.1 |
| 20260507212804 | 58 | 237 | 0.9 | 2.6 | 0.00 | 0.15 | 0.15 | 88 | 1012.0 |
| 20260507212307 | 58 | 237 | 0.9 | 2.6 | 0.00 | 0.15 | 0.15 | 88 | 1012.0 |
| 20260507211804 | 58 | 237 | 1.7 | 4.3 | 0.00 | 0.15 | 0.15 | 88 | 1011.8 |
| 20260507211304 | 59 | 236 | 0.9 | 1.7 | 0.00 | 0.15 | 0.15 | 88 | 1011.8 |
| 20260507210803 | 59 | 236 | 1.7 | 2.6 | 0.00 | 0.15 | 0.15 | 88 | 1011.7 |
| 20260507210304 | 59 | 236 | 1.7 | 2.6 | 0.00 | 0.15 | 0.15 | 88 | 1011.7 |
| 20260507205803 | 59 | 237 | 0.9 | 2.6 | 0.00 | 0.15 | 0.15 | 88 | 1011.7 |
| 20260507205306 | 59 | 237 | 0.9 | 5.2 | 0.00 | 0.15 | 0.15 | 88 | 1011.5 |
| 20260507204804 | 59 | 261 | 2.6 | 2.6 | 0.00 | 0.15 | 0.15 | 88 | 1011.5 |
| 20260507204304 | 59 | 281 | 0.0 | 1.7 | 0.01 | 0.15 | 0.15 | 88 | 1011.4 |
| 20260507203803 | 59 | 286 | 0.9 | 1.7 | 0.01 | 0.15 | 0.15 | 88 | 1011.4 |
| 20260507203304 | 59 | 283 | 0.0 | 1.7 | 0.01 | 0.15 | 0.15 | 88 | 1011.4 |
| 20260507202803 | 59 | 282 | 0.0 | 2.6 | 0.01 | 0.15 | 0.15 | 88 | 1011.4 |
| 20260507201804 | 59 | 286 | 0.9 | 2.6 | 0.01 | 0.15 | 0.15 | 88 | 1011.4 |
| 20260507201304 | 60 | 286 | 0.9 | 2.6 | 0.02 | 0.15 | 0.15 | 88 | 1011.4 |
| 20260507200803 | 60 | 287 | 0.0 | 0.9 | 0.02 | 0.15 | 0.15 | 88 | 1011.5 |
| 20260507200304 | 60 | 287 | 0.0 | 0.0 | 0.02 | 0.15 | 0.15 | 88 | 1011.5 |
| 20260507195804 | 60 | 287 | 0.0 | 0.0 | 0.02 | 0.15 | 0.15 | 87 | 1011.4 |
| 20260507195306 | 60 | 287 | 0.9 | 2.6 | 0.02 | 0.15 | 0.15 | 87 | 1011.4 |
| 20260507194304 | 60 | 291 | 0.9 | 1.7 | 0.01 | 0.14 | 0.14 | 87 | 1011.3 |
| 20260507193804 | 60 | 288 | 0.0 | 1.7 | 0.01 | 0.14 | 0.14 | 87 | 1011.4 |
| 20260507193303 | 60 | 288 | 1.7 | 2.6 | 0.01 | 0.14 | 0.14 | 87 | 1011.4 |
| 20260507192804 | 60 | 290 | 0.9 | 2.6 | 0.01 | 0.14 | 0.14 | 86 | 1011.4 |
| 20260507192306 | 60 | 290 | 0.0 | 2.6 | 0.01 | 0.14 | 0.14 | 86 | 1011.3 |
| 20260507191804 | 61 | 298 | 1.7 | 2.6 | 0.01 | 0.14 | 0.14 | 86 | 1011.2 |
| 20260507191304 | 61 | 310 | 2.6 | 5.2 | 0.00 | 0.13 | 0.13 | 85 | 1011.1 |
| 20260507190804 | 61 | 286 | 1.7 | 6.1 | 0.00 | 0.13 | 0.13 | 84 | 1011.1 |
| 20260507190304 | 61 | 305 | 3.5 | 7.0 | 0.00 | 0.13 | 0.13 | 83 | 1011.0 |
| 20260507185804 | 61 | 290 | 2.6 | 6.1 | 0.00 | 0.13 | 0.13 | 82 | 1011.1 |
| 20260507184803 | 62 | 298 | 4.3 | 8.7 | 0.00 | 0.13 | 0.13 | 79 | 1011.0 |
| 20260507184303 | 63 | 339 | 4.3 | 8.7 | 0.00 | 0.13 | 0.13 | 77 | 1011.0 |
| 20260507183804 | 63 | 338 | 5.2 | 10.4 | 0.00 | 0.13 | 0.13 | 75 | 1011.0 |
| 20260507183304 | 64 | 336 | 5.2 | 12.2 | 0.00 | 0.13 | 0.13 | 75 | 1011.0 |
| 20260507182803 | 65 | 340 | 5.2 | 11.3 | 0.00 | 0.13 | 0.13 | 73 | 1010.9 |
| 20260507182306 | 67 | 343 | 2.6 | 10.4 | 0.00 | 0.13 | 0.13 | 77 | 1010.7 |
| 20260507181803 | 67 | 23 | 4.3 | 7.8 | 0.00 | 0.13 | 0.13 | 76 | 1010.4 |
| 20260507181304 | 67 | 32 | 4.3 | 6.1 | 0.00 | 0.13 | 0.13 | 76 | 1010.3 |
| 20260507180803 | 67 | 42 | 4.3 | 7.0 | 0.00 | 0.13 | 0.13 | 76 | 1010.3 |
| 20260507180303 | 67 | 52 | 4.3 | 7.0 | 0.00 | 0.13 | 0.13 | 76 | 1010.3 |
| 20260507175803 | 67 | 48 | 4.3 | 7.8 | 0.00 | 0.13 | 0.13 | 76 | 1010.2 |
| 20260507175306 | 67 | 63 | 4.3 | 5.2 | 0.00 | 0.13 | 0.13 | 76 | 1010.2 |
| 20260507174305 | 68 | 61 | 2.6 | 6.1 | 0.00 | 0.13 | 0.13 | 76 | 1010.2 |
| 20260507173805 | 68 | 19 | 3.5 | 6.1 | 0.00 | 0.13 | 0.13 | 76 | 1010.1 |
| 20260507173305 | 68 | 29 | 1.7 | 6.1 | 0.00 | 0.13 | 0.13 | 75 | 1010.2 |
| 20260507172805 | 68 | 23 | 4.3 | 7.8 | 0.00 | 0.13 | 0.13 | 73 | 1010.2 |
| 20260507172307 | 68 | 34 | 3.5 | 5.2 | 0.00 | 0.13 | 0.13 | 73 | 1010.1 |
| 20260507171805 | 68 | 53 | 1.7 | 5.2 | 0.00 | 0.13 | 0.13 | 72 | 1010.0 |
| 20260507171305 | 68 | 24 | 1.7 | 5.2 | 0.00 | 0.13 | 0.13 | 72 | 1010.0 |
| 20260507170805 | 68 | 28 | 1.7 | 5.2 | 0.00 | 0.13 | 0.13 | 72 | 1010.0 |
| 20260507170305 | 68 | 51 | 0.9 | 2.6 | 0.00 | 0.13 | 0.13 | 74 | 1010.0 |
| 20260507165805 | 68 | 50 | 1.7 | 5.2 | 0.00 | 0.13 | 0.13 | 73 | 1009.9 |
| 20260507165306 | 68 | 52 | 2.6 | 4.3 | 0.00 | 0.13 | 0.13 | 72 | 1009.9 |
| 20260507164805 | 68 | 63 | 1.7 | 4.3 | 0.00 | 0.13 | 0.13 | 72 | 1009.9 |
| 20260507164305 | 68 | 35 | 2.6 | 4.3 | 0.00 | 0.13 | 0.13 | 73 | 1009.9 |